Regional Weather Roundup
Issued by NWS State College, PA

Home | Current Version | Previous Version | Text Only | Print | Product List | Glossary Off
Versions: 1 2 3 4 5 6 7 8 9 10 11 12 13 14 15 16 17 18 19 20 21 22 23 24 25 26 27 28 29 30 31 32 33 34 35 36 37 38 39 40 41 42 43 44 45 46 47 48 49 50

000
ASUS41 KCTP 230903
RWRCTP

REGIONAL WEATHER ROUNDUP
NATIONAL WEATHER SERVICE STATE COLLEGE PA
500 AM EDT SAT JUL 23 2016

Note: "fair" indicates few or no clouds below 12,000 feet with no
significant weather and/or obstructions to visibility.

* = STATION THAT DOES NOT REPORT PRECIPITATION /E.G. RAIN...SNOW...ETC/
    THUNDER OR FOG.

PAZ002>004-007>009-013>016-020>023-029>032-231000-
WESTERN PENNSYLVANIA

CITY           SKY/WX    TMP DP  RH WIND       PRES   REMARKS
ERIE           CLEAR     78  71  79 W8        29.95R
MEADVILLE      PTCLDY    70  67  90 W6        30.00R
FRANKLIN*      MOCLDY    72  66  83 W7        30.03R
NEW CASTLE     FAIR      71  69  93 SW3       30.00S
BEAVER COUNTY  NOT AVBL
BUTLER*        PTCLDY    70  66  88 SW3       30.03S
PITTSBURGH INT MOCLDY    72  67  84 SW3       30.01S
PITTSBURGH     CLEAR     71  65  81 S3        30.01S
INDIANA*       MOCLDY    72  72 100 SW7       30.05S
LATROBE        PTCLDY    73  72  94 SW8       30.03S
WASHINGTON CO* PTCLDY    68  64  88 CALM      30.03S
$$

PAZ004>006-010>012-017>019-024>028-033>037-041-042-045-046-049>053-231000-
CENTRAL PENNSYLVANIA

CITY           SKY/WX    TMP DP  RH WIND       PRES   REMARKS
BRADFORD       CLEAR     63  61  93 CALM      30.01S
DUBOIS         PTCLDY    70  67  90 SW9       30.00S
CLEARFIELD     PTCLDY    72  67  84 S6        29.99S
JOHNSTOWN      MOCLDY    71  65  81 W9        30.05F
ALTOONA        CLEAR     73  66  78 W6        30.00S
STATE COLLEGE  PTCLDY    72  68  88 SW3       29.97R
WILLIAMSPORT   PTCLDY    73  65  75 CALM      29.90R
SELINSGROVE    CLEAR     68  68 100 CALM      29.92R
FT INDIANTOWN  CLEAR     70  69  96 CALM      29.90F
CAPITAL CITY   CLEAR     77  68  73 W8        29.90F
HARRISBURG     CLEAR     76  72  87 E3        29.90S
YORK           CLEAR     72  67  84 CALM      29.93R
$$

PAZ038>040-043-044-047-048-054-055-060>062-067>071-231000-
EASTERN PENNSYLVANIA

CITY           SKY/WX    TMP DP  RH WIND       PRES   REMARKS
SCRANTON       CLEAR     69  63  81 CALM      29.91R
MOUNT POCONO   CLEAR     67  32  27 NW6       29.95S
ALLENTOWN      CLEAR     71  66  84 SW5       29.89S
QUAKERTOWN*    SUNNY     75  68  78 CALM      29.90S
READING        CLEAR     75  67  76 CALM      29.89S
LANCASTER      CLEAR     71  67  87 NW6       29.91S
COATESVILLE    SUNNY     75  68  78 W5        29.93S
POTTSTOWN      CLEAR     75  68  78 CALM      29.91R
BLUE BELL      CLEAR     68  66  94 CALM      29.88S
DOYLESTOWN     CLEAR     73  66  78 CALM      29.88R
WILLOW GROVE   NOT AVBL
NORTH PHILA    CLEAR     78  69  73 NW7       29.88S
PHILADELPHIA   CLEAR     77  68  73 W7        29.88R
$$



USA.gov is the U.S. government's official web portal to all federal, state and local government web resources and services.